Location: Spruce Knob
(38.6995°N, 79.5330°W)
Time: 21:19:35
(UTC-04:00)

A-11 Canister half - Pass Details

Date: 04 February 2022
Orbit: 1513 x 1686 km, 47.2° (Epoch: 24 May)

Event Time Altitude Azimuth Distance (km) Brightness Sun altitude
Rises 22:41:26 0° 290° (WNW) 4,667 12.0 -56.8°
Reaches altitude 10° 22:45:47 10° 273° (W) 3,671 11.2 -57.4°
Enters shadow 22:46:54 12° 266° (W) 3,479 11.1 -57.6°
Maximum altitude 22:51:14 17° 235° (SW) 3,112 - -58.3°
Drops below altitude 10° 22:56:43 10° 198° (SSW) 3,669 - -59.1°
Sets 23:01:08 0° 180° (S) 4,664 - -59.7°
